Other Public Products
Issued by NWS Charleston, SC

Current Version | Previous Version | Graphics & Text | Print | Product List | Glossary On
Versions: 1 2 3 4 5 6 7 8 9 10 11 12 13 14 15 16 17 18 19 20 21 22 23 24 25 26 27 28 29 30 31 32 33 34 35 36 37 38 39 40 41 42 43 44 45 46 47 48 49 50
696
FPUS82 KCHS 201939
OPUCHS

TEST...KCHS/KSAV Gateway Observations...TEST
National Weather Service Charleston SC
300 PM EDT WED SEP 20 2017

NOTE: "fair" indicates few or no clouds below 12,000 feet with no
significant weather and/or obstructions to visibility.

SCZ050-WAZ558-NCZ071-TXZ119-213-PAZ071-DCZ001-FLZ074-172-MI076-
NYZ176-178-MAZ016-IL014-TNZ027-NJZ106-GAZ044-MD014-202000-

...Gateway Observations for Charleston International...

CITY           SKY/WX    TMP DP  RH WIND       PRES   REMARKS
Chas Airport   MOSUNNY   89  69  51 CALM      29.98F HX  93
Seattle        CLOUDY    53  48  83 NW6       29.71R
Charlotte      MOSUNNY   89  67  47 W6        30.00F HX  92
Dallas DFW     MOSUNNY   96  71  44 S20       29.84F HX 103
Dallas Love    MOSUNNY   94  71  47 S17G25    29.85F HX 101
Philladelphia  PTSUNNY   85  65  51 N14G22    29.88F
Wash National  MOSUNNY   87  63  44 NW3       29.93F
Baltimore      MOSUNNY   86  65  49 NW7       29.91F
Miami          MOSUNNY   90  74  59 E7        29.94F HX  99
Detroit        MOSUNNY   81  66  60 S5        30.00F
Newark         CLOUDY    80  64  58 N18       29.87F
Laguardia      CLOUDY    78  66  66 N15G24    29.85F
J F K          CLOUDY    79  65  62 N21G29    29.85F
Boston Logan   LGT RAIN  68  67  96 N21G35    29.86S FOG
Ft. Lauderdale MOSUNNY   93  74  53 SE10      29.94F HX 103
Chicago O`Hare MOSUNNY   91  67  44 S14G21    29.89F HX  94
Chicago Midway MOSUNNY   91  67  44 SW12      29.89F HX  94
Houston Bush   TSTM      83  75  77 E8        29.91F HX  90
Houston Hobby  MOSUNNY   90  74  59 S8        29.93F HX  99
Nashville      PTSUNNY   88  67  49 S5        30.02F HX  91
Atlanta        MOSUNNY   88  64  44 NW8       30.04F

$$

GAZ044-118-TXZ119-213-NCZ071-DCZ001-MDZ014-506-PAZ021-071-NJZ106-
NYZ176-178-MAZ106-OHZ011-021-055-MIZ076-KYZ091-ILZ014-INZ047-
MNZ060-ONZ431-202000-

...Gateway Observations for Savannah International...

CITY           SKY/WX    TMP DP  RH WIND       PRES   REMARKS
Savannah Arpt  PTSUNNY   92  69  47 NW5       29.98F HX  97
Atlanta        MOSUNNY   88  64  44 NW8       30.04F
Charlotte      MOSUNNY   89  67  47 W6        30.00F HX  92
Dallas DFW     MOSUNNY   96  71  44 S20       29.84F HX 103
Houston Bush   TSTM      83  75  77 E8        29.91F HX  90
Wash National  MOSUNNY   87  63  44 NW3       29.93F
Wash Dulles    MOSUNNY   85  61  44 NW9       29.95F
Baltimore      MOSUNNY   86  65  49 NW7       29.91F
Philadelphia   PTSUNNY   85  65  51 N14G22    29.88F
Newark         CLOUDY    80  64  58 N18       29.87F
Laguardia      CLOUDY    78  66  66 N15G24    29.85F
J F K          CLOUDY    79  65  62 N21G29    29.85F
Boston         LGT RAIN  68  67  96 N21G35    29.86S FOG
Pittsburg      CLOUDY    80  62  54 NE6       30.02F
Akron          PTSUNNY   82  61  48 SW3       30.01F
Cleveland      MOSUNNY   87  65  47 N9        30.01F
Cincinnati     PTSUNNY   83  69  62 VRB7      30.02F
Columbus       MOSUNNY   81  65  58 W6        30.00F
Detroit        MOSUNNY   81  66  60 S5        30.00F
Chicago O`Hare MOSUNNY   91  67  44 S14G21    29.89F HX  94
Minneapolis    SUNNY     75  56  51 NW13G20   29.80R
Indianapolis   MOSUNNY   87  69  54 S7        29.97F HX  91
Toronto Canada MOSUNNY   77  64  65 SE13      30.01F

$$




USA.gov is the U.S. government's official web portal to all federal, state and local government web resources and services.